Caro, MI

9:40 AM EST on December 05, 2019 (GMT -0500)
Caro

Weather History for KCFS - May, 2019

Change the Weather History Date:

Tuesday, May 21, 2019

  Actual Average (WUND) Record (WUND)
Temperature  
Mean Temperature 48 °F -  
Max Temperature 64 °F - - (-1)
Min Temperature 32 °F - - (-1)
Degree Days  
Heating Degree Days 17    
Moisture  
Dew Point 37 °F    
Average Humidity 63    
Maximum Humidity 98    
Minimum Humidity 35    
Precipitation  
Precipitation 0.00 in - - ()
Sea Level Pressure  
Sea Level Pressure 30.17 in    
Wind  
Wind Speed 3 mph (NE)    
Max Wind Speed 9 mph    
Max Gust Speed -    
Visibility 9 miles    
Events Fog    
Averages and records for this station are not official NWS values.
T = Trace of Precipitation, MM = Missing Value Source: NWS Daily Summary

Daily Weather History Graph

Daily Weather History Graph

Search for Another Location

Airport or City:

Astronomy

May. 21, 2019 Rise Set
Actual Time 6:03 AM EDT 8:57 PM EDT
Civil Twilight 5:30 AM EDT 9:31 PM EDT
Nautical Twilight 4:47 AM EDT 10:14 PM EDT
Astronomical Twilight 3:57 AM EDT 11:04 PM EDT
Moon 11:53 PM EDT (5/21) 8:17 AM EDT (5/21)
Length of Visible Light 16h 01m
Length of Day
14h 54m
Waning Gibbous, 91% of the Moon is Illuminated
May 21
Waning Gibbous
May 26
Last Quarter
Jun 3
New
Jun 10
First Quarter
Jun 17
Full

Hourly Weather History & Observations

Time (EDT) Temp. Windchill Dew Point Humidity Pressure Visibility Wind Dir Wind Speed Gust Speed Precip Events Conditions
12:15 AM 45.0 °F 40.6 °F 39.2 °F 80% 30.11 in 10.0 mi North 8.1 mph - N/A   Clear
12:16 AM 45.0 °F 40.6 °F 39.2 °F 80% 30.12 in 10.0 mi North 8.1 mph - N/A   Clear
12:35 AM 44.6 °F 43.1 °F 40.1 °F 84% 30.12 in 10.0 mi North 3.5 mph - N/A   Clear
12:55 AM 43.9 °F - 40.1 °F 87% 30.13 in 10.0 mi Calm Calm - N/A   Clear
1:15 AM 41.9 °F - 39.6 °F 91% 30.12 in 10.0 mi Calm Calm - N/A   Clear
1:35 AM 39.2 °F - 37.9 °F 95% 30.12 in 10.0 mi Calm Calm - N/A   Clear
1:36 AM 39.0 °F - 37.6 °F 95% 30.12 in 10.0 mi Calm Calm - N/A   Clear
1:55 AM 38.7 °F - 37.4 °F 95% 30.13 in 7.0 mi Calm Calm - N/A   Clear
2:15 AM 37.4 °F - 36.5 °F 97% 30.13 in 5.0 mi Calm Calm - N/A   Clear
2:35 AM 37.0 °F - 36.0 °F 96% 30.14 in 0.2 mi Calm Calm - N/A Fog Fog
2:55 AM 36.9 °F - 36.0 °F 97% 30.13 in 7.0 mi Calm Calm - N/A   Clear
2:56 AM 36.7 °F - 35.8 °F 97% 30.13 in 7.0 mi Calm Calm - N/A   Clear
3:15 AM 36.1 °F - 35.2 °F 97% 30.13 in 5.0 mi Calm Calm - N/A   Clear
3:16 AM 36.0 °F - 35.1 °F 97% 30.13 in 5.0 mi Calm Calm - N/A   Clear
3:35 AM 34.7 °F - 33.8 °F 97% 30.13 in 0.8 mi Calm Calm - N/A   Mist
3:55 AM 34.7 °F - 34.0 °F 97% 30.14 in 7.0 mi Calm Calm - N/A   Clear
4:15 AM 33.6 °F - 32.7 °F 96% 30.16 in 10.0 mi Calm Calm - N/A   Clear
4:35 AM 34.2 °F - 33.3 °F 97% 30.16 in 10.0 mi Calm Calm - N/A   Clear
4:36 AM 34.2 °F - 33.3 °F 97% 30.16 in 10.0 mi Calm Calm - N/A   Clear
4:55 AM 34.0 °F - 33.1 °F 96% 30.16 in 10.0 mi Calm Calm - N/A   Clear
4:56 AM 34.0 °F - 33.1 °F 96% 30.16 in 7.0 mi Calm Calm - N/A   Clear
5:15 AM 33.1 °F - 32.4 °F 97% 30.16 in 0.8 mi Calm Calm - N/A   Mist
5:35 AM 33.3 °F - 32.5 °F 97% 30.16 in 2.5 mi Calm Calm - N/A   Clear
5:55 AM 33.1 °F - 32.4 °F 97% 30.15 in 7.0 mi Calm Calm - N/A   Clear
6:15 AM 32.7 °F - 32.2 °F 98% 30.16 in 4.0 mi Calm Calm - N/A   Clear
6:16 AM 32.9 °F - 32.2 °F 97% 30.16 in 4.0 mi Calm Calm - N/A   Clear
6:35 AM 32.7 °F - 32.0 °F 97% 30.17 in 10.0 mi Calm Calm - N/A   Clear
6:55 AM 33.1 °F - 32.4 °F 97% 30.18 in 10.0 mi Calm Calm - N/A   Clear
7:15 AM 34.9 °F - 34.0 °F 97% 30.18 in 10.0 mi Calm Calm - N/A   Clear
7:35 AM 37.6 °F - 36.7 °F 97% 30.19 in 10.0 mi Calm Calm - N/A   Clear
7:36 AM 37.8 °F - 36.7 °F 96% 30.19 in 10.0 mi Calm Calm - N/A   Clear
7:55 AM 40.8 °F - 39.0 °F 93% 30.19 in 10.0 mi Calm Calm - N/A   Clear
7:56 AM 40.8 °F - 39.0 °F 93% 30.19 in 10.0 mi Calm Calm - N/A   Clear
8:15 AM 43.2 °F - 39.9 °F 88% 30.19 in 10.0 mi Calm Calm - N/A   Clear
8:35 AM 45.9 °F - 42.1 °F 87% 30.20 in 10.0 mi Calm Calm - N/A   Clear
8:55 AM 48.7 °F - 43.2 °F 81% 30.20 in 10.0 mi Calm Calm - N/A   Clear
8:56 AM 48.7 °F - 43.2 °F 81% 30.20 in 10.0 mi Calm Calm - N/A   Clear
9:15 AM 52.0 °F - 43.0 °F 71% 30.20 in 10.0 mi Calm Calm - N/A   Clear
9:16 AM 52.2 °F - 43.0 °F 71% 30.20 in 10.0 mi Calm Calm - N/A   Clear
9:35 AM 52.7 °F - 41.5 °F 66% 30.20 in 10.0 mi Calm Calm - N/A   Clear
9:55 AM 53.4 °F - 42.8 °F 67% 30.20 in 10.0 mi North 3.5 mph - N/A   Clear
10:15 AM 56.1 °F - 43.9 °F 64% 30.21 in 10.0 mi North 5.8 mph - N/A   Clear
10:16 AM 56.1 °F - 44.2 °F 64% 30.21 in 10.0 mi North 5.8 mph - N/A   Clear
10:35 AM 56.3 °F - 42.3 °F 59% 30.21 in 10.0 mi ENE 6.9 mph - N/A   Clear
10:36 AM 56.3 °F - 42.4 °F 60% 30.21 in 10.0 mi NE 5.8 mph - N/A   Clear
10:55 AM 57.4 °F - 43.5 °F 60% 30.20 in 10.0 mi ENE 3.5 mph - N/A   Clear
10:56 AM 57.0 °F - 43.0 °F 59% 30.20 in 10.0 mi NE 3.5 mph - N/A   Clear
11:15 AM 57.9 °F - 43.7 °F 59% 30.20 in 10.0 mi North 3.5 mph - N/A   Clear
11:35 AM 58.5 °F - 43.2 °F 57% 30.20 in 10.0 mi North 4.6 mph - N/A   Clear
11:55 AM 60.3 °F - 44.8 °F 57% 30.20 in 10.0 mi North 5.8 mph - N/A   Clear
11:56 AM 60.6 °F - 45.1 °F 57% 30.20 in 10.0 mi NNE 3.5 mph - N/A   Clear
12:15 PM 61.0 °F - 43.9 °F 53% 30.20 in 10.0 mi ENE 8.1 mph - N/A   Clear
12:16 PM 61.2 °F - 44.1 °F 53% 30.20 in 10.0 mi NE 5.8 mph - N/A   Clear
12:35 PM 61.0 °F - 39.6 °F 45% 30.21 in 10.0 mi North 5.8 mph - N/A   Scattered Clouds
12:55 PM 60.6 °F - 39.7 °F 46% 30.21 in 10.0 mi North 4.6 mph - N/A   Clear
1:15 PM 61.3 °F - 40.3 °F 46% 30.20 in 10.0 mi North 6.9 mph - N/A   Clear
1:16 PM 61.3 °F - 40.5 °F 46% 30.20 in 10.0 mi North 5.8 mph - N/A   Clear
1:35 PM 61.2 °F - 39.7 °F 45% 30.20 in 10.0 mi NNE 3.5 mph - N/A   Clear
1:36 PM 61.2 °F - 39.7 °F 45% 30.20 in 10.0 mi Calm Calm - N/A   Clear
1:55 PM 61.9 °F - 39.7 °F 44% 30.19 in 10.0 mi Calm Calm - N/A   Clear
1:56 PM 61.9 °F - 39.6 °F 44% 30.19 in 10.0 mi North 4.6 mph - N/A   Clear
2:15 PM 62.4 °F - 40.5 °F 44% 30.18 in 10.0 mi NE 6.9 mph - N/A   Clear
2:35 PM 63.3 °F - 40.1 °F 43% 30.18 in 10.0 mi NNE 3.5 mph - N/A   Clear
2:55 PM 64.4 °F - 39.6 °F 40% 30.18 in 10.0 mi North 5.8 mph - N/A   Clear
2:56 PM 64.4 °F - 39.4 °F 40% 30.18 in 10.0 mi North 9.2 mph - N/A   Clear
3:15 PM 64.4 °F - 37.8 °F 37% 30.18 in 10.0 mi North 5.8 mph - N/A   Clear
3:16 PM 64.4 °F - 37.4 °F 37% 30.18 in 10.0 mi NNE 5.8 mph - N/A   Clear
3:35 PM 64.9 °F - 38.7 °F 38% 30.19 in 10.0 mi NNE 4.6 mph - N/A   Clear
3:36 PM 64.9 °F - 39.2 °F 39% 30.19 in 10.0 mi NE 5.8 mph - N/A   Clear
3:55 PM 63.5 °F - 36.7 °F 37% 30.19 in 10.0 mi NNE 4.6 mph - N/A   Clear
4:15 PM 63.9 °F - 37.2 °F 37% 30.17 in 10.0 mi NNE 5.8 mph - N/A   Clear
4:16 PM 64.0 °F - 37.4 °F 37% 30.17 in 10.0 mi NNE 6.9 mph - N/A   Clear
4:35 PM 63.3 °F - 35.8 °F 36% 30.18 in 10.0 mi NE 8.1 mph - N/A   Clear
4:36 PM 63.1 °F - 35.4 °F 36% 30.18 in 10.0 mi NE 5.8 mph - N/A   Clear
4:55 PM 63.5 °F - 36.3 °F 36% 30.18 in 10.0 mi NE 6.9 mph - N/A   Clear
4:56 PM 63.5 °F - 36.3 °F 36% 30.18 in 10.0 mi NNE 5.8 mph - N/A   Clear
5:15 PM 63.5 °F - 35.8 °F 36% 30.17 in 10.0 mi East 5.8 mph - N/A   Clear
5:35 PM 62.8 °F - 35.6 °F 36% 30.17 in 10.0 mi ENE 4.6 mph - N/A   Clear
5:55 PM 62.1 °F - 34.0 °F 35% 30.17 in 10.0 mi East 8.1 mph - N/A   Clear
5:56 PM 61.9 °F - 34.3 °F 36% 30.17 in 10.0 mi East 9.2 mph - N/A   Clear
6:15 PM 62.8 °F - 34.7 °F 35% 30.16 in 10.0 mi East 9.2 mph - N/A   Clear
6:35 PM 62.1 °F - 34.7 °F 36% 30.16 in 10.0 mi NE 9.2 mph - N/A   Clear
6:55 PM 60.6 °F - 32.4 °F 35% 30.16 in 10.0 mi East 6.9 mph - N/A   Clear
6:56 PM 60.4 °F - 32.4 °F 35% 30.16 in 10.0 mi East 6.9 mph - N/A   Clear
7:15 PM 59.7 °F - 31.6 °F 35% 30.16 in 10.0 mi East 5.8 mph - N/A   Clear
7:16 PM 59.7 °F - 31.8 °F 35% 30.16 in 10.0 mi East 6.9 mph - N/A   Clear
7:35 PM 60.1 °F - 33.4 °F 37% 30.16 in 10.0 mi East 5.8 mph - N/A   Clear
7:36 PM 60.1 °F - 33.3 °F 36% 30.16 in 10.0 mi East 5.8 mph - N/A   Clear
7:55 PM 58.3 °F - 32.2 °F 37% 30.17 in 10.0 mi ENE 4.6 mph - N/A   Clear
8:15 PM 57.2 °F - 31.6 °F 38% 30.16 in 10.0 mi ENE 4.6 mph - N/A   Clear
8:16 PM 57.2 °F - 31.8 °F 38% 30.16 in 10.0 mi ENE 4.6 mph - N/A   Clear
8:35 PM 55.6 °F - 32.0 °F 41% 30.16 in 10.0 mi ENE 4.6 mph - N/A   Clear
8:36 PM 55.4 °F - 32.0 °F 41% 30.16 in 10.0 mi ENE 5.8 mph - N/A   Clear
8:55 PM 54.0 °F - 32.9 °F 45% 30.15 in 10.0 mi ENE 5.8 mph - N/A   Clear
8:56 PM 54.0 °F - 32.9 °F 45% 30.15 in 10.0 mi ENE 4.6 mph - N/A   Clear
9:15 PM 52.7 °F - 34.0 °F 49% 30.16 in 10.0 mi Calm Calm - N/A   Clear
9:35 PM 50.0 °F - 35.4 °F 57% 30.17 in 10.0 mi ENE 3.5 mph - N/A   Clear
9:36 PM 50.2 °F - 35.4 °F 57% 30.17 in 10.0 mi ENE 3.5 mph - N/A   Clear
9:55 PM 51.3 °F - 35.1 °F 54% 30.15 in 10.0 mi ENE 4.6 mph - N/A   Clear
10:15 PM 50.9 °F - 35.6 °F 56% 30.15 in 10.0 mi East 3.5 mph - N/A   Clear
10:16 PM 50.7 °F - 35.6 °F 56% 30.16 in 10.0 mi East 3.5 mph - N/A   Clear
10:35 PM 49.6 °F - 35.6 °F 59% 30.17 in 10.0 mi ENE 3.5 mph - N/A   Clear
10:36 PM 49.6 °F - 35.6 °F 59% 30.17 in 10.0 mi East 4.6 mph - N/A   Clear
10:55 PM 48.7 °F - 35.8 °F 61% 30.15 in 10.0 mi East 4.6 mph - N/A   Clear
11:15 PM 48.4 °F - 36.0 °F 62% 30.16 in 10.0 mi Calm Calm - N/A   Clear
11:35 PM 47.5 °F - 36.1 °F 65% 30.16 in 10.0 mi Calm Calm - N/A   Clear
11:55 PM 46.9 °F - 36.3 °F 67% 30.15 in 10.0 mi East 3.5 mph - N/A   Clear
11:56 PM 46.9 °F - 36.3 °F 67% 30.15 in 10.0 mi East 3.5 mph - N/A   Clear